Flag for Poland Weather past 2 weeks in Kraków, Poland

Now
70 °F

Passing clouds.


Feels Like: 70 °F
Forecast: 46 / 79 °F
Wind: 6 mph from Southwest

Location: Krakow Airport

Current Time: Jul 31, 2015 at 1:44:48 PM

Latest Report: Jul 31, 2015 at 1:00 PM


Visibility: N/A

Pressure: 30.04 "Hg

Humidity: 35%

Dew point: 41 °F

Location of KrakówLocation

Historic Weather in Kraków — Graph

°F

Kraków temperature yesterday

Maximum temperature yesterday: 73 °F (at 3:30 PM)
Minimum temperature yesterday: 55 °F (at 6:00 AM)
Average temperature yesterday: 64 °F

Past Weeks' High & Low Weather Summary

 TemperatureHumidityPressure
High93 °F (Jul 18, 4:00 PM)100% (Jul 20, 12:30 AM)30.12 "Hg (Jul 20, 12:30 AM)
Low50 °F (Jul 31, 2:00 AM)31% (Jul 30, 3:30 PM)29.65 "Hg (Jul 25, 3:00 PM)
Average71 °F66%29.91 "Hg
* Reported Jul 16 12:00 Noon — Jul 31 12:30 PM, Kraków, Weather by CustomWeather, © 2015

Note: Actual official high and low records may vary slightly from our data, if they occured in-between our weather recording intervals... More about our weather records

Advertising

Kraków weather history for previous 24 hours

 ConditionsComfort  
Time TempWeatherWind HumidityBarometerVisibility
12:30 PM
Fri, Jul 31
68 °FPassing clouds.9 mph43%30.04 "HgN/A
12:00 PM68 °FPassing clouds.8 mph43%30.07 "HgN/A
11:30 AM66 °FPassing clouds.6 mph43%30.07 "HgN/A
11:00 AM66 °FSunny.2 mph49%30.07 "Hg10 mi
10:30 AM63 °FPassing clouds.6 mph56%30.07 "HgN/A
10:00 AM61 °FPassing clouds.7 mph59%30.07 "HgN/A
9:30 AM63 °FSunny.6 mph56%30.07 "Hg10 mi
9:00 AM59 °FPassing clouds.3 mph72%30.04 "HgN/A
8:30 AM57 °FSunny.2 mph77%30.04 "Hg10 mi
8:00 AM55 °FSunny.6 mph82%30.04 "Hg10 mi
7:30 AM54 °FSunny.5 mph88%30.04 "Hg10 mi
7:00 AM54 °FSunny.2 mph82%30.01 "Hg10 mi
6:30 AM52 °FSunny.2 mph88%30.01 "Hg10 mi
6:00 AM52 °FClear.1 mph88%30.01 "Hg10 mi
5:30 AM52 °FClear.2 mph82%30.01 "Hg10 mi
5:00 AM50 °FClear.3 mph88%30.01 "Hg10 mi
4:30 AM52 °FClear.2 mph82%29.98 "Hg10 mi
4:00 AM50 °FClear.3 mph88%29.98 "Hg10 mi
3:30 AM50 °FClear.1 mph82%29.98 "Hg10 mi
3:00 AM50 °FClear.1 mph82%29.98 "Hg10 mi
2:30 AM50 °FClear.2 mph82%29.98 "Hg10 mi
2:00 AM50 °FClear.2 mph82%29.98 "Hg10 mi
1:30 AM52 °FPassing clouds.3 mph77%29.98 "HgN/A
1:00 AM54 °FClear.1 mph77%29.98 "Hg10 mi
12:30 AM54 °FClear.1 mph77%29.98 "Hg10 mi
12:00 AM55 °FClear.2 mph67%29.98 "Hg10 mi
11:30 PM
Thu, Jul 30
55 °FClear.3 mph67%29.98 "Hg10 mi
11:00 PM57 °FClear.2 mph63%29.95 "Hg10 mi
10:30 PM59 °FClear.3 mph55%29.95 "Hg10 mi
10:00 PM61 °FClear.7 mph52%29.95 "Hg10 mi
9:30 PM63 °FClear.7 mph49%29.95 "Hg10 mi
9:00 PM61 °FSunny.8 mph52%29.92 "Hg10 mi
8:30 PM63 °FSunny.6 mph49%29.92 "Hg10 mi
8:00 PM66 °FSunny.6 mph46%29.92 "Hg10 mi
7:30 PM68 °FSunny.8 mph40%29.92 "Hg10 mi
7:00 PM72 °FSunny.13 mph36%29.92 "Hg10 mi
6:30 PM72 °FSunny.9 mph36%29.89 "Hg10 mi
6:00 PM72 °FSunny.17 mph36%29.89 "Hg10 mi
5:30 PM72 °FSunny.15 mph36%29.89 "Hg10 mi
5:00 PM72 °FSunny.15 mph36%29.89 "Hg10 mi
4:30 PM72 °FPassing clouds.15 mph33%29.89 "HgN/A
4:00 PM72 °FPassing clouds.17 mph31%29.89 "HgN/A
3:30 PM73 °FPassing clouds.21 mph31%29.89 "HgN/A
3:00 PM72 °FPassing clouds.18 mph36%29.89 "HgN/A
2:30 PM72 °FPassing clouds.20 mph36%29.89 "HgN/A
2:00 PM72 °FPassing clouds.21 mph38%29.89 "HgN/A
1:30 PM72 °FPassing clouds.18 mph38%29.89 "HgN/A
1:00 PM72 °FPassing clouds.17 mph38%29.89 "HgN/A
Weather by CustomWeather, © 2015

See weather overviewHow to use our weather pages